CAPE
697 640 678 914 1077 1159 1129 1093 936 510 735 360 74 23 0 0 0 0 0 74 920 1165 1005 986 826 776 906 838 890 927 832 734 698 525 600 805 612 855 969 1222 1352 1244 980
657 810 866 838 959 777 853 898 598 536 333 22 0 49 3 0 0 1 0 0 148 781 871 761 831 1074 970 1016 1029 1063 971 777 796 723 693 759 803 610 453 556 820 1366 1236
506 697 843 729 1016 633 309 517 677 626 115 0 0 0 0 0 0 0 0 0 0 0 51 171 431 421 615 761 769 1143 923 672 481 359 670 761 684 573 706 462 473 676 1245
197 513 747 654 814 994 346 604 507 412 417 58 0 0 0 0 0 0 0 0 0 0 0 0 446 757 805 727 458 324 643 769 526 361 454 621 481 474 479 662 544 458 547
229 528 825 806 784 456 405 603 634 758 876 639 183 3 0 2 2 0 0 0 0 0 0 0 0 0 0 0 116 666 855 457 78 134 215 334 395 429 541 454 514 535 528
347 578 759 846 780 684 858 734 999 1117 909 646 428 42 8 0 1 4 0 0 0 0 0 0 0 0 0 0 0 0 15 416 640 95 0 0 22 195 260 407 707 512 441
301 506 840 865 946 836 860 935 1067 1400 1214 496 283 235 21 0 0 9 0 0 0 0 0 0 0 0 0 0 0 55 0 0 53 90 59 0 0 0 0 94 475 517 392
257 373 819 974 928 890 963 1025 1457 1530 915 303 324 147 87 15 0 0 0 0 0 0 0 0 0 0 0 0 0 0 0 0 0 0 13 33 31 37 10 0 29 107 47
241 296 661 1046 975 954 909 1025 1278 1203 946 200 58 96 112 41 1 0 0 0 0 0 0 0 0 0 0 0 0 0 0 0 0 0 5 27 40 23 35 26 0 8 19
209 473 845 946 1061 1017 1149 949 989 413 143 6 23 9 13 19 74 3 0 0 0 0 0 0 0 0 0 0 0 0 0 0 0 0 0 0 9 24 27 53 17 0 2
281 755 1033 1119 1209 1112 1146 1005 334 3 0 0 0 3 37 57 3 33 42 2 0 0 0 0 0 0 0 0 0 0 0 0 0 0 0 0 0 0 3 0 42 76 198
598 649 995 1210 1253 1362 1335 810 107 0 0 0 0 0 27 166 105 0 0 0 0 0 0 0 0 0 0 0 0 0 0 0 0 0 0 0 0 0 0 2 0 15 37
686 775 1092 1293 1308 1439 1435 897 360 28 153 2 42 47 159 265 76 0 0 0 0 0 0 0 0 0 0 0 0 0 0 0 0 0 0 0 0 0 0 1 0 0 0
858 765 834 1224 1404 1466 1564 1252 1071 608 356 30 43 289 380 228 66 0 0 0 0 0 0 0 0 0 0 0 0 0 0 0 0 0 0 0 0 0 0 2 2 3 4
991 995 999 1073 1255 1422 1540 1544 1541 1324 752 417 491 500 359 191 61 0 0 0 0 0 0 0 0 0 0 0 0 0 0 0 0 0 0 0 0 0 1 5 5 7 7
1161 1231 1219 1449 1751 2021 1763 1741 1682 1199 1061 777 634 604 238 147 57 0 0 0 0 0 0 0 0 0 0 0 0 0 0 0 0 0 0 0 0 4 14 20 12 12 8
1299 1390 1384 1492 1719 1759 1549 1617 1783 1363 1143 707 623 459 344 167 27 0 0 0 0 0 0 0 0 0 0 0 0 0 0 0 0 0 0 0 1 11 13 10 11 11 8
1473 1475 1430 1523 1947 2193 2038 2123 1748 1332 458 371 781 497 388 11 0 0 0 6 0 0 0 0 0 0 0 0 0 0 0 0 0 0 0 2 6 7 4 4 4 3 2
1457 1627 1719 1750 1786 2168 2310 1790 1549 889 140 927 721 540 313 60 1 7 4 0 0 0 0 0 0 0 0 0 0 0 0 0 0 0 0 1 9 8 5 3 2 1 1
1477 1531 1638 1669 1733 2080 1707 1536 1119 664 1056 971 659 679 342 40 1 0 0 0 0 0 0 0 0 0 0 0 0 0 0 0 0 0 2 5 3 4 4 2 1 2 0
1691 1777 1800 1864 1789 1025 353 1468 1159 1109 1008 965 617 98 2 0 0 0 0 0 0 0 0 0 0 0 0 0 0 0 0 0 0 1 2 1 2 0 0 1 2 3 1
1961 2109 2354 2476 1444 1310 1486 1171 1074 993 924 709 20 0 0 0 0 0 0 0 0 0 0 0 0 0 0 0 0 0 0 0 1 0 2 0 0 0 0 1 1 0 2
2199 2400 2710 2401 1910 1533 1253 1121 828 815 556 118 0 0 0 0 0 0 0 0 0 0 0 0 0 0 0 0 0 0 0 0 2 0 2 1 0 0 0 0 1 1 0
2530 2670 2536 2144 2124 1733 1013 633 699 550 184 1 0 0 0 0 0 0 0 0 0 0 0 0 0 0 0 0 0 0 0 0 0 0 1 2 0 2 0 5 3 0 0
2529 2487 2225 2178 1880 891 601 577 297 21 0 0 0 0 0 0 0 0 0 0 0 0 0 0 0 0 0 0 0 0 0 2 1 0 1 3 0 1 1 7 3 1 0
2444 2057 1735 1480 789 525 133 29 1 0 0 0 0 0 0 0 0 0 0 0 0 0 0 0 0 0 0 0 0 0 0 2 3 1 0 2 1 2 2 10 3 4 4
CIN
-56 -77 -73 -65 -66 -82 -68 -55 -62 -86 -89 -115 -154 -193 -0 -0 -0 -0 -0 -211 -55 -33 -35 -34 -35 -35 -26 -28 -22 -21 -24 -32 -32 -44 -38 -16 -19 -8 -5 -0 -0 -0 -0
-65 -58 -59 -75 -70 -86 -86 -85 -92 -97 -123 -200 -0 -175 -40 -0 -0 -85 -0 -0 -139 -57 -41 -33 -26 -24 -18 -12 -10 -10 -13 -21 -20 -25 -28 -24 -22 -37 -32 -14 -7 -0 -4
-96 -73 -66 -75 -62 -112 -135 -102 -92 -94 -145 -5 -0 -0 -0 -0 -0 -0 -0 -0 -0 -0 -132 -121 -36 -31 -20 -14 -17 -10 -11 -19 -24 -27 -16 -14 -19 -23 -19 -45 -45 -40 -1
-144 -95 -86 -84 -76 -81 -114 -87 -100 -94 -90 -152 -0 -0 -0 -0 -0 -0 -0 -0 -0 -0 -0 -0 -50 -31 -17 -8 -14 -18 -11 -10 -18 -24 -13 -14 -20 -21 -21 -17 -36 -49 -39
-138 -110 -67 -75 -88 -105 -122 -94 -97 -102 -57 -74 -117 -196 -0 -307 -312 -0 -0 -0 -0 -0 -0 -0 -0 -0 -0 -0 -41 -32 -14 -17 -40 -21 -27 -11 -10 -14 -19 -16 -14 -21 -19
-117 -103 -89 -72 -82 -73 -67 -94 -70 -78 -87 -106 -87 -163 -233 -0 -203 -266 -0 -0 -0 -0 -0 -0 -0 -0 -0 -0 -0 -0 -17 -26 -10 -24 -0 -0 -10 -16 -19 -18 -10 -13 -12
-122 -114 -91 -79 -84 -77 -58 -66 -62 -50 -54 -126 -97 -101 -173 -57 -0 -257 -0 -0 -0 -0 -0 -0 -0 -0 -0 -0 -0 -110 -0 -0 -83 -32 -51 -0 -0 -0 -0 -31 -12 -6 -5
-155 -147 -109 -73 -78 -85 -70 -61 -53 -31 -63 -141 -61 -113 -98 -138 -0 -0 -0 -0 -0 -0 -0 -0 -0 -0 -0 -0 -0 -0 -0 -0 -0 -0 -60 -72 -24 -11 -5 -0 -44 -28 -27
-188 -189 -137 -88 -81 -86 -84 -64 -43 -27 -15 -109 -124 -88 -80 -143 -117 -0 -0 -0 -0 -0 -0 -0 -0 -0 -0 -0 -0 -0 -0 -0 -0 -0 -64 -57 -47 -43 -24 -16 -0 -7 -8
-229 -181 -137 -112 -82 -89 -70 -66 -55 -97 -85 -100 -107 -206 -143 -144 -62 -141 -100 -0 -0 -0 -0 -0 -0 -0 -0 -0 -0 -0 -0 -0 -0 -0 -0 -1 -92 -70 -60 -44 -33 -0 -1
-270 -190 -135 -109 -90 -93 -74 -79 -131 -168 -0 -0 -0 -51 -266 -152 -186 -86 -101 -43 -0 -0 -0 -0 -0 -0 -0 -0 -0 -0 -0 -0 -0 -0 -0 -0 -0 -0 -91 -4 -52 -31 -13
-252 -248 -171 -133 -100 -93 -80 -122 -303 -0 -0 -0 -0 -0 -245 -102 -96 -0 -0 -0 -0 -0 -0 -0 -0 -0 -0 -0 -0 -0 -0 -0 -0 -0 -0 -0 -0 -0 -0 -107 -0 -63 -42
-265 -244 -188 -133 -101 -69 -94 -183 -230 -382 -280 -129 -219 -299 -235 -124 -145 -0 -0 -0 -0 -0 -0 -0 -0 -0 -0 -0 -0 -0 -0 -0 -0 -0 -0 -0 -0 -0 -0 -0 -0 -0 -0
-266 -274 -238 -163 -96 -88 -123 -134 -140 -201 -237 -352 -253 -180 -107 -94 -143 -0 -0 -0 -0 -0 -0 -0 -0 -0 -0 -0 -0 -0 -0 -0 -0 -0 -0 -0 -0 -0 -0 -0 -0 -0 -0
-348 -312 -271 -214 -165 -147 -125 -126 -137 -144 -188 -189 -217 -175 -124 -130 -138 -0 -0 -0 -0 -0 -0 -0 -0 -0 -0 -0 -0 -0 -0 -0 -0 -0 -0 -0 -0 -0 -0 -0 -0 -0 -0
-374 -326 -285 -185 -116 -78 -127 -136 -126 -257 -219 -206 -195 -206 -188 -120 -110 -0 -0 -0 -0 -0 -0 -0 -0 -0 -0 -0 -0 -0 -0 -0 -0 -0 -0 -0 -0 -0 -0 -0 -0 -0 -0
-410 -351 -274 -199 -129 -118 -176 -109 -125 -161 -165 -189 -173 -151 -101 -124 -149 -0 -0 -0 -0 -0 -0 -0 -0 -0 -0 -0 -0 -0 -0 -0 -0 -0 -0 -0 -0 -0 -0 -0 -0 -0 -0
-411 -356 -301 -227 -118 -85 -134 -73 -114 -118 -288 -280 -127 -106 -118 -63 -0 -0 -0 -48 -0 -0 -0 -0 -0 -0 -0 -0 -0 -0 -0 -0 -0 -0 -0 -0 -0 -0 -0 -0 -0 -0 -0
-425 -349 -287 -206 -172 -106 -70 -90 -117 -171 -397 -161 -107 -112 -104 -126 -13 -52 -49 -0 -0 -0 -0 -0 -0 -0 -0 -0 -0 -0 -0 -0 -0 -0 -0 -3 -0 -0 -0 -0 -0 -0 -0
-423 -374 -307 -228 -203 -104 -82 -123 -185 -267 -160 -111 -71 -43 -41 -62 -24 -0 -0 -0 -0 -0 -0 -0 -0 -0 -0 -0 -0 -0 -0 -0 -0 -0 -1 -0 -0 -0 -0 -0 -0 -0 -0
-379 -332 -279 -200 -157 -56 -47 -111 -137 -143 -140 -58 -51 -112 -13 -0 -0 -0 -0 -0 -0 -0 -0 -0 -0 -0 -0 -0 -0 -0 -0 -0 -0 -0 -0 -0 -0 -0 -0 -0 -0 -0 -0
-329 -268 -205 -119 -178 -203 -231 -111 -77 -138 -69 -58 -186 -0 -0 -0 -0 -0 -0 -0 -0 -0 -0 -0 -0 -0 -0 -0 -0 -0 -0 -0 -0 -0 -0 -0 -0 -0 -0 -0 -0 -0 -0
-277 -228 -148 -170 -165 -150 -198 -167 -174 -116 -106 -209 -13 -0 -0 -0 -0 -0 -0 -0 -0 -0 -0 -0 -0 -0 -0 -0 -0 -0 -0 -0 -0 -0 -0 -0 -0 -0 -0 -0 -0 -0 -0
-235 -169 -151 -162 -120 -144 -265 -285 -188 -149 -240 -47 -0 -0 -0 -0 -0 -0 -0 -0 -0 -0 -0 -0 -0 -0 -0 -0 -0 -0 -0 -0 -0 -0 -0 -0 -0 -0 -0 -0 -0 -0 -0
-191 -152 -145 -127 -144 -331 -360 -271 -304 -404 -0 -0 -0 -0 -0 -0 -0 -0 -0 -0 -0 -0 -0 -0 -0 -0 -0 -0 -0 -0 -0 -0 -0 -0 -0 -0 -0 -0 -0 -0 -0 -0 -0
-139 -174 -212 -235 -371 -408 -500 -520 -61 -0 -0 -0 -0 -0 -0 -0 -0 -0 -0 -0 -0 -0 -0 -0 -0 -0 -0 -0 -0 -0 -0 -0 -0 -0 -0 -0 -0 -0 -0 -1 -0 -0 -0
Wind_Speed
17 17 15 14 13 13 15 16 14 11 8 12 13 15 17 16 13 13 12 12 9 8 6 6 5 4 4 4 3 2 2 2 1 2 6 7 6 6 4 3 5 11 12
17 16 15 14 14 16 15 14 13 12 10 11 10 23 21 12 11 13 13 13 11 7 6 5 5 6 8 5 2 3 3 2 1 2 4 5 7 8 7 6 8 8 15
16 15 15 15 14 14 14 11 14 16 11 13 19 4 3 4 12 13 14 15 14 13 11 8 4 3 3 3 3 2 2 5 5 4 4 6 7 8 9 11 11 11 10
16 16 16 15 12 13 11 13 16 15 15 10 15 18 16 18 18 18 19 21 21 20 19 20 20 19 16 9 8 8 4 4 5 12 12 7 7 7 9 12 13 12 11
17 17 16 14 13 12 11 11 10 9 8 9 16 23 24 25 24 24 23 23 22 22 23 23 24 24 25 24 22 18 11 10 9 10 11 14 16 12 10 9 14 14 12
16 16 16 14 10 9 9 9 9 8 11 17 19 23 21 21 24 24 22 23 23 24 24 23 24 24 26 27 27 25 24 23 22 17 16 19 22 21 21 16 9 12 12
17 15 14 12 8 6 7 8 10 14 20 26 24 25 22 17 21 22 20 20 21 23 24 24 24 24 25 26 26 26 27 27 26 25 22 21 24 27 26 24 15 9 13
16 13 11 12 8 5 4 10 15 20 25 30 31 28 29 26 20 20 18 21 22 23 24 24 25 26 23 25 26 27 30 30 29 29 28 28 24 25 27 25 21 17 17
15 13 12 11 8 2 1 11 15 20 26 30 31 28 27 12 27 21 18 19 25 24 25 24 25 28 26 27 28 29 29 29 30 30 29 29 29 28 28 28 27 24 19
16 15 13 9 6 2 3 11 20 26 27 36 21 8 2 5 10 24 20 19 22 24 26 25 25 29 26 28 30 30 29 29 29 29 30 31 31 32 31 31 31 30 29
14 12 8 5 4 1 5 16 22 26 35 39 13 9 9 10 14 16 14 14 17 17 19 20 25 30 26 29 30 31 29 28 28 30 32 33 34 35 36 35 37 37 34
12 10 6 2 2 3 7 13 14 15 19 23 9 10 8 10 13 14 15 16 18 18 16 17 24 29 28 30 31 34 31 30 31 31 34 36 37 38 40 40 41 42 42
11 10 6 1 3 4 9 8 8 10 14 17 11 13 11 10 12 14 16 18 20 20 19 21 24 28 28 30 34 33 32 31 31 33 36 38 40 42 43 44 46 48 49
12 8 6 3 5 5 8 11 9 11 15 13 18 15 12 14 15 14 15 19 23 21 24 24 28 26 28 33 32 33 30 29 30 34 40 43 45 48 49 48 48 50 52
12 7 3 4 5 4 9 10 10 15 16 13 20 15 15 17 14 14 15 17 20 24 23 26 27 29 33 34 32 31 30 30 32 34 37 42 46 48 55 55 53 51 50
11 8 5 3 3 5 7 8 7 9 11 12 14 14 15 18 15 15 17 15 16 19 23 25 27 30 33 32 31 31 30 30 32 29 25 26 27 53 51 48 50 51 50
9 9 5 5 6 7 7 10 13 14 17 16 15 14 16 18 15 18 17 16 15 18 22 27 28 31 33 32 31 28 30 31 30 24 23 22 22 38 38 42 42 46 49
10 8 7 8 9 9 9 9 8 8 19 16 17 16 16 15 15 15 14 14 17 21 24 28 31 33 33 32 30 32 32 33 33 22 21 18 17 19 26 34 39 40 42
10 10 10 10 11 12 12 8 5 10 19 15 14 14 15 15 15 14 14 16 20 24 26 28 31 31 31 31 34 33 35 38 38 21 13 12 9 15 23 27 34 37 40
12 12 11 13 14 13 15 4 6 11 13 11 12 14 15 15 15 15 17 20 24 27 28 31 31 33 32 34 34 40 44 52 44 36 15 12 12 18 21 27 30 30 33
11 11 13 15 16 16 7 8 9 13 13 12 16 18 17 18 17 18 20 23 26 28 30 31 32 33 34 38 42 41 40 51 45 33 21 22 11 19 23 26 25 25 25
10 10 13 15 16 15 14 11 14 15 14 16 15 18 19 20 19 21 23 25 27 29 31 31 31 33 32 35 37 39 38 42 44 36 29 13 17 22 22 24 23 23 21
10 11 13 15 17 16 15 14 15 16 16 15 14 17 19 19 20 22 26 28 28 30 28 27 29 29 31 34 35 36 32 29 20 19 10 7 22 22 24 25 24 21 18
9 10 11 12 12 12 13 15 16 15 16 17 17 18 19 19 21 25 27 30 30 29 30 28 25 25 26 26 30 32 20 19 12 14 34 21 25 18 16 26 22 18 16
7 8 9 10 10 11 12 13 14 16 18 19 20 19 19 21 24 26 29 31 31 30 30 29 27 29 30 29 31 34 29 30 28 12 17 16 13 17 11 23 14 10 9
5 7 9 9 9 10 12 13 14 16 18 19 20 19 20 22 24 26 28 30 31 30 29 30 31 33 33 34 32 33 22 33 31 10 13 15 12 7 5 15 14 15 13
Wind_Direction
152 151 148 162 177 168 144 109 111 129 137 106 92 77 61 60 73 78 73 62 81 92 100 106 123 104 90 74 63 49 48 9 330 243 229 229 234 237 243 252 291 297 294
149 153 151 150 159 121 122 117 108 103 116 100 90 30 15 61 66 59 54 56 67 86 104 125 148 166 189 178 78 39 13 6 281 284 285 261 245 236 238 227 211 204 284
147 149 146 139 119 102 92 119 85 73 99 83 58 100 96 97 63 53 46 45 48 46 44 53 72 81 98 79 68 54 29 356 346 333 309 293 281 251 237 223 216 213 205
157 170 170 169 167 133 125 77 53 66 65 86 59 50 51 49 45 40 34 29 28 29 27 18 14 13 14 20 17 15 11 348 338 338 333 315 308 295 253 229 223 221 211
170 173 176 170 151 130 133 131 137 125 104 77 49 32 33 32 29 26 25 23 25 20 15 14 6 359 353 350 349 351 348 344 341 339 338 329 321 313 299 259 229 227 227
168 170 180 171 137 114 105 107 94 82 56 34 27 18 27 33 25 22 24 20 14 10 9 9 3 358 348 344 343 344 338 332 330 332 331 329 319 314 308 307 262 235 237
188 176 183 171 145 129 76 60 45 25 8 359 8 4 12 24 13 17 23 25 21 12 5 2 359 355 352 349 350 350 346 339 331 324 322 320 315 307 305 304 305 276 269
189 176 173 174 157 143 61 22 6 354 346 341 341 353 348 359 21 16 18 20 16 12 5 2 358 356 358 355 352 347 340 335 329 324 320 316 312 307 302 301 301 300 302
189 183 183 179 186 140 45 13 6 357 347 344 336 341 328 13 356 16 12 10 4 4 2 2 359 353 354 350 346 342 338 334 329 324 320 316 312 309 301 295 294 292 292
191 190 190 187 197 230 349 2 2 1 7 352 11 27 39 3 9 2 8 2 1 359 355 355 357 353 354 349 342 340 337 333 329 325 321 315 309 303 301 294 290 287 286
187 186 178 181 205 267 1 1 9 26 24 360 35 40 16 8 4 1 359 7 6 11 6 360 358 352 354 349 344 342 338 334 329 324 320 315 308 301 295 291 284 280 281
184 181 182 199 336 355 5 20 33 33 18 11 41 27 7 12 7 5 3 4 0 5 6 7 359 353 352 349 345 339 336 333 328 325 320 315 309 302 295 289 283 278 274
188 191 188 222 352 1 6 18 20 7 4 23 5 6 9 5 2 4 4 2 0 3 5 359 358 355 354 351 344 341 337 334 330 324 318 314 309 303 297 290 281 274 269
199 201 212 247 330 342 355 3 355 351 354 1 5 4 354 5 4 3 4 1 355 358 356 356 354 359 355 350 347 343 340 337 330 324 317 312 306 300 293 288 282 272 266
204 209 239 306 314 295 348 352 352 357 349 352 351 2 1 2 3 2 2 0 359 356 355 356 358 357 353 351 349 346 343 339 333 327 322 316 307 300 290 283 277 271 265
206 213 228 287 314 345 346 339 341 344 352 348 353 2 4 3 5 7 2 5 2 357 352 355 355 354 353 353 351 348 345 341 336 331 320 318 314 291 287 285 274 266 263
218 228 251 277 284 293 304 322 332 339 357 358 4 6 8 6 6 3 7 9 5 1 352 354 355 355 355 355 354 354 349 344 339 319 309 301 282 271 263 281 276 266 260
239 258 277 281 288 284 303 310 342 345 354 5 5 12 10 17 14 11 13 10 7 1 357 352 355 356 357 359 358 356 354 350 342 313 296 285 278 262 254 260 270 268 262
263 287 293 294 283 295 300 318 356 355 357 2 14 17 18 20 16 20 19 13 6 1 358 356 357 359 1 3 1 1 356 353 349 340 305 287 289 271 257 255 265 258 257
284 289 290 300 305 307 306 53 17 1 13 20 21 19 21 20 19 21 17 10 4 0 360 359 0 1 3 4 3 359 357 350 316 321 9 326 284 273 270 270 272 261 254
291 292 306 317 316 333 331 43 34 28 28 29 19 19 20 21 22 18 13 8 4 3 3 2 2 4 6 4 0 2 1 326 323 5 332 303 293 282 286 291 280 278 265
300 306 321 331 346 359 26 40 36 27 28 24 26 21 22 21 20 16 11 9 8 6 4 4 4 5 8 7 7 6 6 326 332 357 311 303 297 296 293 301 293 280 278
305 316 331 341 350 6 31 32 25 25 26 30 25 21 20 21 20 16 11 10 10 9 10 9 7 11 10 9 10 11 338 327 321 306 359 340 315 296 301 302 293 282 278
309 325 338 351 5 17 30 28 29 31 30 23 22 20 21 24 19 13 12 10 10 12 11 13 17 18 17 19 16 15 353 356 354 35 21 41 315 304 288 311 296 260 254
334 343 355 5 19 25 33 35 32 33 26 23 20 23 27 23 17 15 13 11 12 14 15 16 20 19 21 23 22 21 339 339 338 46 48 38 38 312 295 331 318 324 353
358 7 13 22 31 38 39 39 39 29 24 23 24 27 26 21 18 18 16 14 14 16 19 17 16 17 22 22 30 31 24 343 344 48 4 40 38 8 114 339 348 4 12